Weather History for Clarksville, TN

Change the Weather History Date:

Monday, December 31, 2012

  Actual Average Record
Temperature  
Mean Temperature 34 °F -  
Max Temperature 41 °F - 69 °F (1984)
Min Temperature 26 °F - 3 °F (1976)
Degree Days  
Heating Degree Days 31    
Month to date heating degree days 584  
Since 1 July heating degree days 1440  
Cooling Degree Days 0    
Month to date cooling degree days 3  
Moisture  
Dew Point 31 °F    
Average Humidity 74    
Maximum Humidity 92    
Minimum Humidity 55    
Precipitation  
Precipitation 0.19 in - 1.51 in (1963)
Month to date precipitation 5.23  
Sea Level Pressure  
Sea Level Pressure 30.18 in    
Wind  
Wind Speed 4 mph (SE)    
Max Wind Speed 10 mph    
Max Gust Speed 15 mph    
Visibility 8 miles    
Events Rain    
T = Trace of Precipitation, MM = Missing Value Source: NWS Daily Summary

Daily Weather History Graph

Daily Weather History Graph

Search for Another Location

Airport:

Trip Planner

Search our weather history database for the weather conditions in past years. The results will help you decide how hot, cold, wet, or windy it might be!

Date:

Astronomy

Dec. 31, 2012 Rise Set
Actual Time 7:01 AM CST 4:44 PM CST
Civil Twilight 6:33 AM CST 5:12 PM CST
Nautical Twilight 6:00 AM CST 5:45 PM CST
Astronomical Twilight 5:29 AM CST 6:16 PM CST
Moon 8:08 PM CST (12/31) 8:48 AM CST (12/31)
Length of Visible Light 10h 39m
Length of Day
9h 42m
Waning Gibbous, 90% of the Moon is Illuminated
Dec 31
Waning Gibbous
Jan 4
Last Quarter
Jan 11
New
Jan 18
First Quarter
Jan 26
Full

Hourly Weather History & Observations

Time (CST) Temp. Windchill Dew Point Humidity Pressure Visibility Wind Dir Wind Speed Gust Speed Precip Events Conditions
12:52 AM 30.0 °F 26.5 °F 26.1 °F 85% 30.35 in 10.0 mi South 3.5 mph - N/A   Clear
1:52 AM 30.9 °F - 26.1 °F 82% 30.34 in 10.0 mi Calm Calm - N/A   Clear
2:52 AM 30.9 °F 27.5 °F 25.0 °F 79% 30.33 in 10.0 mi South 3.5 mph - N/A   Clear
3:52 AM 32.0 °F - 26.1 °F 79% 30.32 in 10.0 mi Calm Calm - N/A   Clear
4:52 AM 30.9 °F 25.2 °F 27.0 °F 85% 30.34 in 10.0 mi SSW 5.8 mph - N/A   Mostly Cloudy
5:52 AM 33.1 °F 27.7 °F 27.0 °F 78% 30.31 in 10.0 mi SSE 5.8 mph - 0.00 in   Overcast
6:52 AM 34.0 °F 31.0 °F 27.0 °F 75% 30.32 in 10.0 mi South 3.5 mph - 0.00 in   Overcast
7:52 AM 33.1 °F - 28.0 °F 82% 30.31 in 10.0 mi Calm Calm - N/A   Clear
8:52 AM 34.0 °F 31.0 °F 28.9 °F 82% 30.30 in 10.0 mi ESE 3.5 mph - N/A   Scattered Clouds
9:52 AM 37.0 °F 33.3 °F 28.9 °F 73% 30.30 in 10.0 mi Variable 4.6 mph - N/A   Scattered Clouds
10:52 AM 39.0 °F 34.8 °F 28.0 °F 65% 30.25 in 10.0 mi SSE 5.8 mph - N/A   Overcast
11:52 AM 39.9 °F 35.8 °F 28.0 °F 63% 30.22 in 10.0 mi South 5.8 mph - N/A   Overcast
12:52 PM 41.0 °F 37.1 °F 27.0 °F 57% 30.21 in 10.0 mi SW 5.8 mph - N/A   Overcast
1:52 PM 41.0 °F 36.4 °F 28.0 °F 60% 30.17 in 10.0 mi South 6.9 mph - N/A   Overcast
2:52 PM 41.0 °F 37.1 °F 30.0 °F 65% 30.17 in 10.0 mi SSW 5.8 mph - 0.00 in   Overcast
3:52 PM 39.9 °F 36.7 °F 32.0 °F 73% 30.17 in 10.0 mi SSE 4.6 mph - N/A   Overcast
4:52 PM 39.0 °F 34.8 °F 32.0 °F 76% 30.14 in 10.0 mi SE 5.8 mph - 0.00 in   Overcast
5:52 PM 39.9 °F - 32.0 °F 73% 30.14 in 10.0 mi Calm Calm - N/A   Overcast
6:52 PM 39.0 °F 36.8 °F 33.1 °F 79% 30.13 in 10.0 mi NE 3.5 mph - N/A   Overcast
7:52 PM 39.0 °F 36.8 °F 34.0 °F 82% 30.12 in 10.0 mi NNE 3.5 mph - 0.01 in   Overcast
8:52 PM 37.9 °F 34.4 °F 34.0 °F 86% 30.10 in 9.0 mi NNE 4.6 mph - 0.00 in   Overcast
9:33 PM 37.4 °F 32.1 °F 35.6 °F 93% 30.07 in 2.5 mi ENE 6.9 mph - 0.02 in Rain Light Rain
9:38 PM 37.4 °F 33.8 °F 35.6 °F 93% 30.08 in 4.0 mi ENE 4.6 mph - 0.02 in Rain Light Rain
9:52 PM 37.0 °F 33.3 °F 35.1 °F 93% 30.09 in 3.0 mi ENE 4.6 mph - 0.03 in Rain Light Rain
10:21 PM 37.4 °F 32.1 °F 35.6 °F 93% 30.05 in 2.5 mi ESE 6.9 mph - 0.02 in Rain Light Rain
10:45 PM 37.4 °F - 35.6 °F 93% 30.07 in 2.0 mi Calm Calm - 0.03 in Rain Light Rain
10:52 PM 37.0 °F - 36.0 °F 96% 30.08 in 1.8 mi Calm Calm - 0.05 in Rain Rain
11:19 PM 37.4 °F 33.8 °F 35.6 °F 93% 30.05 in 2.0 mi SE 4.6 mph - 0.04 in Rain Light Rain
11:37 PM 37.4 °F 33.8 °F 35.6 °F 93% 30.04 in 1.8 mi SE 4.6 mph - 0.06 in Rain Rain
11:50 PM 37.4 °F 30.8 °F 35.6 °F 93% 30.04 in 2.0 mi SSE 9.2 mph - 0.09 in Rain Light Rain
11:52 PM 37.0 °F 32.4 °F 36.0 °F 96% 30.04 in 2.0 mi Variable 5.8 mph - 0.09 in Rain Light Rain